STARLINK-31493, 59329

Orbit data source: Space-Track

STARLINK-31493, 59329 is a payload satellite owned by SpaceX/Seattle (US) in LEO that was launched on Mon, 25 Mar 2024 UTC via an FALCON 9 launch vehicle from the Air Force Eastern Test Range (AFETR). Payload-class satellites include a variety of spacecraft equipped with specific instruments for various scientific and technological missions. These include communications satellites like Starlink; space stations such as the ISS; scientific satellites like the Hubble; Earth observation satellites from companies like Planet Labs, Umbra, and HawkEye 360; GPS; miniature CubeSats for education and research; and military/defense satellites.

Loading next visibility...
Identifier
59329, 2024-057K
Orbit
LEO
Country
Flag of USUS
Related business
Manufacturer
SpaceX/Seattle
Mission
Operational Commercial Communications
Bus & Motor
STARLINK V2M, Unknown motor
Mass
730 kg wet, ~700 kg dry
Launch date (UTC)
2024-03-25 (2 years ago)
Launch vehicle
FALCON 9
Launch site
Air Force Eastern Test Range (AFETR)
Object type
Payload
Rocket body
Debris
Shape & HBR
Box + 2 Pan, 17.7 m
Radar Cross Section
33.884 m², Large (>1 m²)

Expand to show TLE details & history
Last TLE update: 2 days ago

TLE from 2 days ago
0 STARLINK-31493
1 59329U 24057K   26171.43271662  .00000021  00000-0  10278-4 0  9999
2 59329  43.0025 326.7205 0001681 282.3666  77.6998 15.27575122125559
Epoch: 2026-06-20T10:23Z
TLE epoch observation values (Epoch: 2026-06-20T10:23:06.715Z)
Latitude
-0°
Longitude
-97.7049°
Altitude
482.594 km
Speed
7.626 km/s
True Right ascension
21h 46m 52s
True Declination
0° 00' 00"
Sunlit
Object was in full shadow at epoch
Visualization orbit readout
Latitude
Unknown
Longitude
Unknown
Altitude
Unknown
Speed
Unknown
Apparent Right ascension
Unknown
Apparent Declination
Unknown
Sunlit
N/A
Visualization observer readout
Local Sidereal Time
21:30:56
Azimuth
Unknown
Elevation
Unknown
Doppler factor
Unknown
Orbital elements
Apogee altitude
486.162 km
Perigee altitude
483.855 km
Semi-major axis
6,863.145 km
Eccentricity
0.00017
Inclination
43.0025°
RAAN
326.7205°
Arg. of periapsis
282.3666°
True anomaly
77.71862°
Mean anomaly
77.6998°
Eccentric anomaly
77.70921°
Mean motion
3.81732 °/min
Orbital period
94.31 mins
BSTAR
0.000010278
Loading maneuver chart data...
Computing Atmospheric mass density...
Loading historical data...
Loading historical data...
Loading historical data...
Loading historical data...
Loading historical data...
Loading historical data...
Loading historical data...

Documentation

Showing up to 5 results
|